New Bern, NC

10:38 AM EDT on June 29, 2017 (GMT -0400)
Craven County Regional

Weather History for KEWN - August, 2014

Change the Weather History Date:

Saturday, August 16, 2014

  Actual Average Record
Temperature  
Mean Temperature 80 °F 79 °F  
Max Temperature 92 °F 88 °F 99 °F (1954)
Min Temperature 67 °F 71 °F 60 °F (1967)
Degree Days  
Heating Degree Days 0 0  
Month to date heating degree days 0 0  
Since 1 June heating degree days 0 1  
Since 1 July heating degree days 0 0  
Cooling Degree Days 15 14  
Month to date cooling degree days 213 237  
Year to date cooling degree days 1478 1327  
Since 1 June cooling degree days 1117 1084  
Growing Degree Days 28 (Base 50)    
Moisture  
Dew Point 68 °F    
Average Humidity 67    
Maximum Humidity 87    
Minimum Humidity 47    
Precipitation  
Precipitation T in 0.21 in 1.56 in (1973)
Month to date precipitation 5.39 3.54  
Year to date precipitation 33.27 33.69  
Snow  
Snow 0.00 in - - ()
Month to date snowfall 0.0  
Since 1 July snowfall 0.0  
Snow Depth 0.00 in    
Sea Level Pressure  
Sea Level Pressure 30.02 in    
Wind  
Wind Speed 4 mph (SSW)    
Max Wind Speed 15 mph    
Max Gust Speed 28 mph    
Visibility 10 miles    
Events      
T = Trace of Precipitation, MM = Missing Value Source: NWS Daily Summary

Daily Weather History Graph

Daily Weather History Graph

Search for Another Location

Airport or City:

Trip Planner

Search our weather history database for the weather conditions in past years. The results will help you decide how hot, cold, wet, or windy it might be!

Date:

Astronomy

Aug. 16, 2014 Rise Set
Actual Time 6:28 AM EDT 7:55 PM EDT
Civil Twilight 6:02 AM EDT 8:22 PM EDT
Nautical Twilight 5:29 AM EDT 8:54 PM EDT
Astronomical Twilight 4:56 AM EDT 9:27 PM EDT
Moon 11:54 PM EDT (8/16) 12:56 PM EDT (8/16)
Length of Visible Light 14h 20m
Length of Day
13h 26m
Waning Gibbous, 59% of the Moon is Illuminated
Aug 16
Waning Gibbous
Aug 17
Last Quarter
Aug 25
New
Sep 2
First Quarter
Sep 8
Full

Hourly Weather History & Observations

Time (EDT) Temp. Heat Index Dew Point Humidity Pressure Visibility Wind Dir Wind Speed Gust Speed Precip Events Conditions
1:54 AM 73.0 °F - 64.9 °F 76% 30.00 in 10.0 mi Calm Calm - N/A   Clear
2:54 AM 70.0 °F - 64.9 °F 84% 30.00 in 10.0 mi South 3.5 mph - N/A   Clear
3:54 AM 70.0 °F - 64.9 °F 84% 30.00 in 10.0 mi Calm Calm - N/A   Clear
4:54 AM 68.0 °F - 64.0 °F 87% 30.01 in 10.0 mi Calm Calm - N/A   Clear
5:54 AM 68.0 °F - 64.0 °F 87% 30.02 in 10.0 mi Calm Calm - N/A   Clear
6:54 AM 66.9 °F - 63.0 °F 87% 30.03 in 10.0 mi Calm Calm - N/A   Clear
7:54 AM 72.0 °F - 66.0 °F 81% 30.04 in 10.0 mi Calm Calm - N/A   Clear
8:54 AM 79.0 °F - 68.0 °F 69% 30.04 in 10.0 mi WSW 4.6 mph - N/A   Clear
9:54 AM 82.9 °F 86.5 °F 69.1 °F 63% 30.04 in 10.0 mi WSW 5.8 mph - N/A   Clear
10:54 AM 87.1 °F 92.8 °F 71.1 °F 59% 30.06 in 10.0 mi WNW 5.8 mph - N/A   Clear
11:54 AM 87.1 °F 91.3 °F 69.1 °F 55% 30.05 in 10.0 mi Calm Calm - N/A   Partly Cloudy
12:54 PM 88.0 °F 91.4 °F 68.0 °F 51% 30.04 in 10.0 mi Variable 3.5 mph - N/A   Scattered Clouds
1:54 PM 89.1 °F 92.1 °F 66.9 °F 48% 30.02 in 10.0 mi South 3.5 mph - N/A   Partly Cloudy
2:54 PM 89.1 °F 94.1 °F 70.0 °F 53% 30.01 in 10.0 mi SE 6.9 mph - N/A   Scattered Clouds
3:54 PM 84.0 °F 89.0 °F 71.1 °F 65% 30.01 in 10.0 mi SSW 15.0 mph 19.6 mph N/A   Scattered Clouds
4:54 PM 82.9 °F 87.5 °F 71.1 °F 67% 30.00 in 10.0 mi SSW 8.1 mph - 0.00 in   Clear
5:54 PM 81.0 °F 84.9 °F 71.1 °F 72% 30.01 in 10.0 mi SSW 5.8 mph - N/A   Clear
6:54 PM 82.0 °F 86.3 °F 71.1 °F 69% 30.01 in 10.0 mi Variable 6.9 mph - N/A   Clear
7:54 PM 79.0 °F - 70.0 °F 74% 30.02 in 10.0 mi SSW 5.8 mph - N/A   Clear
8:54 PM 75.9 °F - 70.0 °F 82% 30.03 in 10.0 mi SSW 3.5 mph - N/A   Clear
9:54 PM 75.0 °F - 68.0 °F 79% 30.03 in 10.0 mi SSW 3.5 mph - 0.00 in   Clear
10:54 PM 75.9 °F - 70.0 °F 82% 30.03 in 10.0 mi SSW 4.6 mph - N/A   Scattered Clouds
11:54 PM 75.9 °F - 71.1 °F 85% 30.02 in 10.0 mi SW 5.8 mph - N/A   Clear